千帆星座-41 (QIANFAN-41)

Basic Information
目录编号:
62242
目录名称:
QIANFAN-41
国际标识:
2024-232F
轨道中心:
EARTH
卫星名称:
千帆星座-41
卫星全名:
千帆星座-41 (QIANFAN-41)
卫星状态:
在轨 (已飞行464 天)
发射日期:
2024-12-05 UTC
国别 :
中国 (CN)
星等 :
--
Orbit Information
数据来源 国际轨道数据 AOE轨道数据
星历时间 2026-03-14T06:25:53+0800
12小时前
查看轨道信息
2026-03-13T16:00:00+0800
1天前
查看轨道信息
半长轴 7446.696km 7446.701km
偏心率 0.0012104 0.0012422
轨道倾角 89.007° 89.013°
近地点辐角 292.824° 291.950°
升交点赤经 31.994° 32.064°
平近点角 67.163° 25.253°
近地点 1059.545km 1059.313km
远地点 1077.573km 1077.815km
周期 106.587分钟 106.587分钟
每日圈数 13.510062 13.510048
Detailed Information
卫星平台:
41
覆盖范围:
全球
运营商:
上海垣信卫星科技有限公司
运营商所在国:
中国
使用方式:
暂无
Satellite Introduction
千帆星座,也被称为“G60星链”计划,是中国版“星链”的重要组成部分,旨在打造一个由1.4万多颗低轨宽频多媒体卫星构成的庞大星座。千帆星座计划由上海垣信卫星科技有限公司负责实施,于2023年启动建设。该项目是我国第二个低轨卫星大星座,旨在通过构建庞大的卫星网络,为全球用户提供高质量的通信和宽带互联网服务。
2D Orbit Map
3D Orbit Map
Orbit Altitude Analysis Chart
Orbit Inclination Analysis Chart
Orbit Comprehensive Analysis Chart
View Comprehensive Chart